Location: Pl�tzky
(52.0521°N, 11.8020°E)
Time: 18:31:01
(UTC+00:00)

NOSS 2-3 (E) - Pass Details

Date: 22 November 2019
Orbit: 595 x 1616 km, 63.4° (Epoch: 03 December)

Event Time Altitude Azimuth Distance (km) Brightness Sun altitude
Rises 16:30:47 0° 215° (SW) 2,862 7.9 -11.6°
Reaches altitude 10° 16:32:54 10° 212° (SSW) 2,007 7.0 -11.9°
Maximum altitude 16:37:19 69° 130° (SE) 753 3.8 -12.6°
Enters shadow 16:41:33 16° 50° (NE) 1,979 5.6 -13.2°
